Time,TemperatureF,DewpointF,PressureIn,WindDirection,WindDirectionDegrees,WindSpeedMPH,WindSpeedGustMPH,Humidity,HourlyPrecipIn,Conditions,Clouds,dailyrainin,SoftwareType,DateUTC
2013-03-30 00:00:00,33.0,26.6,30.19,SSW,205,0.0,1.0,77,0.00,,CLR,0.00,VWS V13.01,2013-03-30 04:00:00,
2013-03-30 00:01:00,33.0,26.6,30.19,SSW,205,0.0,0.0,77,0.00,,CLR,0.00,VWS V13.01,2013-03-30 04:01:00,
2013-03-30 00:02:00,33.0,26.6,30.19,SSW,205,0.0,0.0,77,0.00,,CLR,0.00,VWS V13.01,2013-03-30 04:02:00,
2013-03-30 00:07:00,33.1,26.7,30.19,SSW,205,0.0,2.0,77,0.00,,CLR,0.00,VWS V13.01,2013-03-30 04:07:00,
2013-03-30 00:12:00,33.3,26.6,30.19,SSW,205,0.0,2.0,76,0.00,,CLR,0.00,VWS V13.01,2013-03-30 04:12:00,
2013-03-30 00:17:00,33.6,26.5,30.19,SSW,205,0.0,2.0,75,0.00,,CLR,0.00,VWS V13.01,2013-03-30 04:17:00,
2013-03-30 00:22:00,33.8,26.4,30.19,SSW,205,0.0,2.0,74,0.00,,CLR,0.00,VWS V13.01,2013-03-30 04:22:00,
2013-03-30 00:27:00,33.9,26.5,30.18,SSW,205,0.0,2.0,74,0.00,,CLR,0.00,VWS V13.01,2013-03-30 04:27:00,
2013-03-30 00:30:00,33.8,26.4,30.19,SSW,205,0.0,2.0,74,0.00,,CLR,0.00,VWS V13.01,2013-03-30 04:30:00,
2013-03-30 00:32:00,33.8,26.4,30.18,SSW,205,0.0,0.0,74,0.00,,CLR,0.00,VWS V13.01,2013-03-30 04:32:00,
2013-03-30 00:37:00,33.6,26.2,30.18,SSW,205,0.0,0.0,74,0.00,,CLR,0.00,VWS V13.01,2013-03-30 04:37:00,
2013-03-30 00:42:00,33.4,26.0,30.19,SSW,205,0.0,0.0,74,0.00,,CLR,0.00,VWS V13.01,2013-03-30 04:42:00,
2013-03-30 00:47:00,33.2,26.1,30.19,SSW,205,0.0,0.0,75,0.00,,CLR,0.00,VWS V13.01,2013-03-30 04:47:00,
2013-03-30 00:52:00,32.9,26.2,30.19,SSW,205,0.0,0.0,76,0.00,,CLR,0.00,VWS V13.01,2013-03-30 04:52:00,
2013-03-30 00:57:00,32.7,26.0,30.19,SSW,205,0.0,0.0,76,0.00,,CLR,0.00,VWS V13.01,2013-03-30 04:57:00,
2013-03-30 01:00:00,32.6,25.9,30.19,SSW,205,0.0,0.0,76,0.00,,CLR,0.00,VWS V13.01,2013-03-30 05:00:00,
2013-03-30 01:02:00,32.5,25.8,30.19,SSW,205,0.0,0.0,76,0.00,,CLR,0.00,VWS V13.01,2013-03-30 05:02:00,
2013-03-30 01:07:00,32.3,25.9,30.19,SSW,205,0.0,0.0,77,0.00,,CLR,0.00,VWS V13.01,2013-03-30 05:07:00,
2013-03-30 01:12:00,32.1,25.7,30.19,SSW,205,0.0,0.0,77,0.00,,CLR,0.00,VWS V13.01,2013-03-30 05:12:00,
2013-03-30 01:17:00,32.0,25.6,30.19,SSW,205,0.0,0.0,77,0.00,,CLR,0.00,VWS V13.01,2013-03-30 05:17:00,
2013-03-30 01:22:00,32.0,25.9,30.19,SSW,205,0.0,1.0,78,0.00,,CLR,0.00,VWS V13.01,2013-03-30 05:22:00,
2013-03-30 01:27:00,31.9,25.8,30.19,SSW,205,0.0,1.0,78,0.00,,CLR,0.00,VWS V13.01,2013-03-30 05:27:00,
2013-03-30 01:30:00,31.9,25.5,30.19,SSW,205,0.0,1.0,77,0.00,,CLR,0.00,VWS V13.01,2013-03-30 05:30:00,
2013-03-30 01:32:00,31.8,25.7,30.19,SSW,205,0.0,0.0,78,0.00,,CLR,0.00,VWS V13.01,2013-03-30 05:32:00,
2013-03-30 01:37:00,31.7,25.6,30.19,SSW,205,0.0,0.0,78,0.00,,CLR,0.00,VWS V13.01,2013-03-30 05:37:00,
2013-03-30 01:42:00,31.6,25.5,30.19,SSW,205,0.0,1.0,78,0.00,,CLR,0.00,VWS V13.01,2013-03-30 05:42:00,
2013-03-30 01:47:00,31.5,25.4,30.19,SSW,205,0.0,1.0,78,0.00,,CLR,0.00,VWS V13.01,2013-03-30 05:47:00,
2013-03-30 01:52:00,31.4,25.4,30.19,SSW,205,0.0,1.0,78,0.00,,CLR,0.00,VWS V13.01,2013-03-30 05:52:00,
2013-03-30 01:57:00,31.2,25.5,30.19,SSW,205,0.0,1.0,79,0.00,,CLR,0.00,VWS V13.01,2013-03-30 05:57:00,
2013-03-30 02:00:00,31.2,25.5,30.19,SSW,205,0.0,1.0,79,0.00,,CLR,0.00,VWS V13.01,2013-03-30 06:00:00,
2013-03-30 02:02:00,31.1,25.7,30.19,SSW,205,0.0,0.0,80,0.00,,CLR,0.00,VWS V13.01,2013-03-30 06:02:00,
2013-03-30 02:07:00,30.9,25.5,30.19,SSW,205,0.0,1.0,80,0.00,,CLR,0.00,VWS V13.01,2013-03-30 06:07:00,
2013-03-30 02:12:00,30.8,25.4,30.19,SSW,205,0.0,1.0,80,0.00,,CLR,0.00,VWS V13.01,2013-03-30 06:12:00,
2013-03-30 02:17:00,30.7,25.3,30.19,SSW,205,0.0,1.0,80,0.00,,CLR,0.00,VWS V13.01,2013-03-30 06:17:00,
2013-03-30 02:22:00,30.6,25.5,30.19,SSW,205,0.0,1.0,81,0.00,,CLR,0.00,VWS V13.01,2013-03-30 06:22:00,
2013-03-30 02:28:00,30.6,25.5,30.19,SSW,205,0.0,1.0,81,0.00,,CLR,0.00,VWS V13.01,2013-03-30 06:28:00,
2013-03-30 02:30:00,30.5,25.4,30.19,SSW,205,0.0,1.0,81,0.00,,CLR,0.00,VWS V13.01,2013-03-30 06:30:00,
2013-03-30 02:33:00,30.5,25.4,30.19,SSW,205,0.0,1.0,81,0.00,,CLR,0.00,VWS V13.01,2013-03-30 06:33:00,
2013-03-30 02:38:00,30.4,25.3,30.19,SSW,205,0.0,1.0,81,0.00,,CLR,0.00,VWS V13.01,2013-03-30 06:38:00,
2013-03-30 02:43:00,30.2,25.4,30.19,SSW,205,0.0,1.0,82,0.00,,CLR,0.00,VWS V13.01,2013-03-30 06:43:00,
2013-03-30 02:48:00,30.1,25.3,30.19,SSW,205,0.0,1.0,82,0.00,,CLR,0.00,VWS V13.01,2013-03-30 06:48:00,
2013-03-30 02:53:00,30.1,25.3,30.19,SSW,205,0.0,1.0,82,0.00,,CLR,0.00,VWS V13.01,2013-03-30 06:53:00,
2013-03-30 02:58:00,30.0,25.2,30.19,SSW,205,0.0,1.0,82,0.00,,CLR,0.00,VWS V13.01,2013-03-30 06:58:00,
2013-03-30 03:00:00,29.9,25.1,30.18,SSW,205,0.0,1.0,82,0.00,,CLR,0.00,VWS V13.01,2013-03-30 07:00:00,
2013-03-30 03:03:00,30.0,25.2,30.19,SSW,205,0.0,0.0,82,0.00,,CLR,0.00,VWS V13.01,2013-03-30 07:03:00,
2013-03-30 03:08:00,30.1,25.3,30.19,SSW,205,0.0,1.0,82,0.00,,CLR,0.00,VWS V13.01,2013-03-30 07:08:00,
2013-03-30 03:13:00,30.1,25.3,30.19,SSW,205,0.0,1.0,82,0.00,,CLR,0.00,VWS V13.01,2013-03-30 07:13:00,
2013-03-30 03:18:00,30.2,25.4,30.18,SSW,205,0.0,1.0,82,0.00,,CLR,0.00,VWS V13.01,2013-03-30 07:18:00,
2013-03-30 03:23:00,30.2,25.4,30.18,SSW,205,0.0,1.0,82,0.00,,CLR,0.00,VWS V13.01,2013-03-30 07:23:00,
2013-03-30 03:28:00,30.1,25.0,30.19,SSW,205,0.0,1.0,81,0.00,,CLR,0.00,VWS V13.01,2013-03-30 07:28:00,
2013-03-30 03:30:00,30.1,25.0,30.19,SSW,205,0.0,1.0,81,0.00,,CLR,0.00,VWS V13.01,2013-03-30 07:30:00,
2013-03-30 03:33:00,30.1,25.0,30.19,SSW,205,0.0,0.0,81,0.00,,CLR,0.00,VWS V13.01,2013-03-30 07:33:00,
2013-03-30 03:38:00,30.1,25.0,30.19,SSW,205,0.0,1.0,81,0.00,,CLR,0.00,VWS V13.01,2013-03-30 07:38:00,
2013-03-30 03:43:00,30.1,25.0,30.19,SSW,205,0.0,1.0,81,0.00,,CLR,0.00,VWS V13.01,2013-03-30 07:43:00,
2013-03-30 03:48:00,30.1,25.0,30.19,SSW,205,0.0,1.0,81,0.00,,CLR,0.00,VWS V13.01,2013-03-30 07:48:00,
2013-03-30 03:53:00,30.0,24.9,30.19,SSW,205,0.0,1.0,81,0.00,,CLR,0.00,VWS V13.01,2013-03-30 07:53:00,
2013-03-30 03:58:00,29.9,24.8,30.18,SSW,205,0.0,1.0,81,0.00,,CLR,0.00,VWS V13.01,2013-03-30 07:58:00,
2013-03-30 04:00:00,29.9,24.8,30.19,SSW,205,0.0,1.0,81,0.00,,CLR,0.00,VWS V13.01,2013-03-30 08:00:00,
2013-03-30 04:03:00,29.9,24.8,30.19,SSW,205,0.0,0.0,81,0.00,,CLR,0.00,VWS V13.01,2013-03-30 08:03:00,
2013-03-30 04:08:00,29.9,24.8,30.19,SSW,205,0.0,0.0,81,0.00,,CLR,0.00,VWS V13.01,2013-03-30 08:08:00,
2013-03-30 04:13:00,29.8,24.7,30.19,SSW,205,0.0,0.0,81,0.00,,CLR,0.00,VWS V13.01,2013-03-30 08:13:00,
2013-03-30 04:18:00,29.7,24.6,30.19,SSW,205,0.0,0.0,81,0.00,,CLR,0.00,VWS V13.01,2013-03-30 08:18:00,
2013-03-30 04:23:00,29.6,24.8,30.19,SSW,205,0.0,0.0,82,0.00,,CLR,0.00,VWS V13.01,2013-03-30 08:23:00,
2013-03-30 04:28:00,29.6,24.8,30.19,SSW,205,0.0,1.0,82,0.00,,CLR,0.00,VWS V13.01,2013-03-30 08:28:00,
2013-03-30 04:30:00,29.6,24.8,30.19,SSW,205,0.0,1.0,82,0.00,,CLR,0.00,VWS V13.01,2013-03-30 08:30:00,
2013-03-30 04:33:00,29.6,24.5,30.18,SSW,205,0.0,0.0,81,0.00,,CLR,0.00,VWS V13.01,2013-03-30 08:33:00,
2013-03-30 04:38:00,29.5,24.4,30.19,SSW,205,0.0,0.0,81,0.00,,CLR,0.00,VWS V13.01,2013-03-30 08:38:00,
2013-03-30 04:43:00,29.4,24.6,30.19,SSW,205,0.0,0.0,82,0.00,,CLR,0.00,VWS V13.01,2013-03-30 08:43:00,
2013-03-30 04:49:00,29.4,24.6,30.18,SSW,205,0.0,0.0,82,0.00,,CLR,0.00,VWS V13.01,2013-03-30 08:49:00,
2013-03-30 04:54:00,29.3,24.5,30.19,SSW,205,0.0,0.0,82,0.00,,CLR,0.00,VWS V13.01,2013-03-30 08:54:00,
2013-03-30 04:59:00,29.2,24.4,30.19,SSW,205,0.0,0.0,82,0.00,,CLR,0.00,VWS V13.01,2013-03-30 08:59:00,
2013-03-30 05:00:00,29.2,24.4,30.19,SSW,205,0.0,0.0,82,0.00,,CLR,0.00,VWS V13.01,2013-03-30 09:00:00,
2013-03-30 05:04:00,29.1,24.3,30.19,SSW,205,0.0,0.0,82,0.00,,CLR,0.00,VWS V13.01,2013-03-30 09:04:00,
2013-03-30 05:09:00,29.1,24.3,30.19,SSW,205,0.0,0.0,82,0.00,,CLR,0.00,VWS V13.01,2013-03-30 09:09:00,
2013-03-30 05:14:00,29.0,24.2,30.19,SSW,205,0.0,0.0,82,0.00,,CLR,0.00,VWS V13.01,2013-03-30 09:14:00,
2013-03-30 05:19:00,28.9,24.1,30.19,SSW,205,0.0,0.0,82,0.00,,CLR,0.00,VWS V13.01,2013-03-30 09:19:00,
2013-03-30 05:24:00,28.8,24.0,30.19,SSW,205,0.0,0.0,82,0.00,,CLR,0.00,VWS V13.01,2013-03-30 09:24:00,
2013-03-30 05:29:00,28.7,24.2,30.19,SSW,205,0.0,0.0,83,0.00,,CLR,0.00,VWS V13.01,2013-03-30 09:29:00,
2013-03-30 05:30:00,28.7,23.9,30.19,SSW,205,0.0,0.0,82,0.00,,CLR,0.00,VWS V13.01,2013-03-30 09:30:00,
2013-03-30 05:34:00,28.6,24.1,30.19,SSW,205,0.0,0.0,83,0.00,,CLR,0.00,VWS V13.01,2013-03-30 09:34:00,
2013-03-30 05:39:00,28.5,24.0,30.19,SSW,205,0.0,0.0,83,0.00,,CLR,0.00,VWS V13.01,2013-03-30 09:39:00,
2013-03-30 05:44:00,28.5,24.0,30.19,SSW,205,0.0,0.0,83,0.00,,CLR,0.00,VWS V13.01,2013-03-30 09:44:00,
2013-03-30 05:49:00,28.5,24.0,30.19,SSW,205,0.0,0.0,83,0.00,,CLR,0.00,VWS V13.01,2013-03-30 09:49:00,
2013-03-30 05:54:00,28.5,24.0,30.19,SSW,205,0.0,0.0,83,0.00,,CLR,0.00,VWS V13.01,2013-03-30 09:54:00,
2013-03-30 05:59:00,28.5,24.0,30.19,SSW,205,0.0,0.0,83,0.00,,CLR,0.00,VWS V13.01,2013-03-30 09:59:00,
2013-03-30 06:00:00,28.5,24.0,30.19,SSW,205,0.0,0.0,83,0.00,,CLR,0.00,VWS V13.01,2013-03-30 10:00:00,
2013-03-30 06:04:00,28.5,24.0,30.19,SSW,205,0.0,0.0,83,0.00,,CLR,0.00,VWS V13.01,2013-03-30 10:04:00,
2013-03-30 06:09:00,28.5,24.0,30.19,SSW,205,0.0,0.0,83,0.00,,CLR,0.00,VWS V13.01,2013-03-30 10:09:00,
2013-03-30 06:14:00,28.4,23.9,30.20,SSW,205,0.0,0.0,83,0.00,,CLR,0.00,VWS V13.01,2013-03-30 10:14:00,
2013-03-30 06:19:00,28.4,23.9,30.20,SSW,205,0.0,0.0,83,0.00,,CLR,0.00,VWS V13.01,2013-03-30 10:19:00,
2013-03-30 06:24:00,28.4,23.9,30.19,SSW,205,0.0,0.0,83,0.00,,CLR,0.00,VWS V13.01,2013-03-30 10:24:00,
2013-03-30 06:29:00,28.3,24.1,30.19,SSW,205,0.0,0.0,84,0.00,,CLR,0.00,VWS V13.01,2013-03-30 10:29:00,
2013-03-30 06:30:00,28.3,24.1,30.19,SSW,205,0.0,0.0,84,0.00,,CLR,0.00,VWS V13.01,2013-03-30 10:30:00,
2013-03-30 06:34:00,28.3,24.1,30.20,SSW,205,0.0,0.0,84,0.00,,CLR,0.00,VWS V13.01,2013-03-30 10:34:00,
2013-03-30 06:39:00,28.3,24.1,30.20,SSW,205,0.0,0.0,84,0.00,,CLR,0.00,VWS V13.01,2013-03-30 10:39:00,
2013-03-30 06:44:00,28.3,24.1,30.20,SSW,205,0.0,0.0,84,0.00,,CLR,0.00,VWS V13.01,2013-03-30 10:44:00,
2013-03-30 06:49:00,28.5,24.3,30.20,SSW,205,0.0,0.0,84,0.00,,CLR,0.00,VWS V13.01,2013-03-30 10:49:00,
2013-03-30 06:54:00,28.5,24.0,30.19,SSW,205,0.0,0.0,83,0.00,,CLR,0.00,VWS V13.01,2013-03-30 10:54:00,
2013-03-30 06:59:00,28.6,24.1,30.20,SSW,205,0.0,1.0,83,0.00,,CLR,0.00,VWS V13.01,2013-03-30 10:59:00,
2013-03-30 07:00:00,28.6,24.1,30.20,SSW,205,0.0,1.0,83,0.00,,CLR,0.00,VWS V13.01,2013-03-30 11:00:00,
2013-03-30 07:04:00,28.7,24.2,30.20,SSW,205,0.0,1.0,83,0.00,,CLR,0.00,VWS V13.01,2013-03-30 11:04:00,
2013-03-30 07:09:00,28.8,24.3,30.20,SSW,205,0.0,1.0,83,0.00,,CLR,0.00,VWS V13.01,2013-03-30 11:09:00,
2013-03-30 07:14:00,29.0,24.2,30.20,SSW,205,0.0,1.0,82,0.00,,CLR,0.00,VWS V13.01,2013-03-30 11:14:00,
2013-03-30 07:19:00,29.1,24.3,30.20,SSW,205,0.0,1.0,82,0.00,,CLR,0.00,VWS V13.01,2013-03-30 11:19:00,
2013-03-30 07:24:00,29.3,24.5,30.20,SSW,205,0.0,1.0,82,0.00,,CLR,0.00,VWS V13.01,2013-03-30 11:24:00,
2013-03-30 07:29:00,29.4,24.3,30.21,SSW,205,0.0,1.0,81,0.00,,CLR,0.00,VWS V13.01,2013-03-30 11:29:00,
2013-03-30 07:30:00,29.4,24.3,30.21,SSW,205,0.0,1.0,81,0.00,,CLR,0.00,VWS V13.01,2013-03-30 11:30:00,
2013-03-30 07:34:00,29.6,24.5,30.20,SSW,205,0.0,0.0,81,0.00,,CLR,0.00,VWS V13.01,2013-03-30 11:34:00,
2013-03-30 07:39:00,29.7,24.6,30.20,SSW,205,0.0,2.0,81,0.00,,CLR,0.00,VWS V13.01,2013-03-30 11:39:00,
2013-03-30 07:44:00,29.8,24.7,30.20,SSW,205,0.0,2.0,81,0.00,,CLR,0.00,VWS V13.01,2013-03-30 11:44:00,
2013-03-30 07:49:00,30.0,24.6,30.20,SSW,205,0.0,2.0,80,0.00,,CLR,0.00,VWS V13.01,2013-03-30 11:49:00,
2013-03-30 07:54:00,30.1,25.0,30.20,SSW,205,0.0,2.0,81,0.00,,CLR,0.00,VWS V13.01,2013-03-30 11:54:00,
2013-03-30 07:59:00,30.3,25.2,30.20,SSW,205,0.0,0.0,81,0.00,,CLR,0.00,VWS V13.01,2013-03-30 11:59:00,
2013-03-30 08:00:00,30.3,25.2,30.20,SSW,205,0.0,2.0,81,0.00,,CLR,0.00,VWS V13.01,2013-03-30 12:00:00,
2013-03-30 08:04:00,30.4,25.0,30.21,SSW,205,0.0,0.0,80,0.00,,CLR,0.00,VWS V13.01,2013-03-30 12:04:00,
2013-03-30 08:10:00,30.7,25.3,30.21,SSW,205,0.0,0.0,80,0.00,,CLR,0.00,VWS V13.01,2013-03-30 12:10:00,
2013-03-30 08:15:00,30.9,25.5,30.21,SSW,205,0.0,1.0,80,0.00,,CLR,0.00,VWS V13.01,2013-03-30 12:15:00,
2013-03-30 08:20:00,31.2,25.8,30.21,SSW,205,0.0,1.0,80,0.00,,CLR,0.00,VWS V13.01,2013-03-30 12:20:00,
2013-03-30 08:25:00,31.7,25.9,30.21,South,180,0.0,3.0,79,0.00,,CLR,0.00,VWS V13.01,2013-03-30 12:25:00,
2013-03-30 08:30:00,32.2,26.1,30.21,South,180,0.0,0.0,78,0.00,,CLR,0.00,VWS V13.01,2013-03-30 12:30:00,
2013-03-30 08:35:00,32.6,26.5,30.21,South,180,0.0,0.0,78,0.00,,CLR,0.00,VWS V13.01,2013-03-30 12:35:00,
2013-03-30 08:40:00,32.9,26.5,30.21,South,180,0.0,0.0,77,0.00,,CLR,0.00,VWS V13.01,2013-03-30 12:40:00,
2013-03-30 08:45:00,33.3,26.9,30.21,South,180,0.0,1.0,77,0.00,,CLR,0.00,VWS V13.01,2013-03-30 12:45:00,
2013-03-30 08:50:00,33.9,27.1,30.21,South,180,0.0,1.0,76,0.00,,CLR,0.00,VWS V13.01,2013-03-30 12:50:00,
2013-03-30 08:55:00,34.4,27.3,30.21,South,180,0.0,1.0,75,0.00,,CLR,0.00,VWS V13.01,2013-03-30 12:55:00,
2013-03-30 09:00:00,35.0,27.6,30.21,South,180,0.0,0.0,74,0.00,,CLR,0.00,VWS V13.01,2013-03-30 13:00:00,
2013-03-30 09:05:00,35.8,28.0,30.21,South,180,0.0,1.0,73,0.00,,CLR,0.00,VWS V13.01,2013-03-30 13:05:00,
2013-03-30 09:10:00,36.6,28.4,30.21,South,180,0.0,1.0,72,0.00,,CLR,0.00,VWS V13.01,2013-03-30 13:10:00,
2013-03-30 09:15:00,37.5,28.6,30.21,South,180,0.0,1.0,70,0.00,,CLR,0.00,VWS V13.01,2013-03-30 13:15:00,
2013-03-30 09:20:00,38.4,29.1,30.21,South,180,0.0,1.0,69,0.00,,CLR,0.00,VWS V13.01,2013-03-30 13:20:00,
2013-03-30 09:25:00,39.3,29.6,30.21,South,180,0.0,1.0,68,0.00,,CLR,0.00,VWS V13.01,2013-03-30 13:25:00,
2013-03-30 09:30:00,40.0,29.6,30.21,South,180,0.0,0.0,66,0.00,,CLR,0.00,VWS V13.01,2013-03-30 13:30:00,
2013-03-30 09:35:00,40.6,29.8,30.21,South,180,0.0,1.0,65,0.00,,CLR,0.00,VWS V13.01,2013-03-30 13:35:00,
2013-03-30 09:40:00,41.2,30.3,30.21,South,180,0.0,1.0,65,0.00,,CLR,0.00,VWS V13.01,2013-03-30 13:40:00,
2013-03-30 09:45:00,41.9,29.9,30.21,South,186,0.0,3.0,62,0.00,,CLR,0.00,VWS V13.01,2013-03-30 13:45:00,
2013-03-30 09:50:00,42.5,30.0,30.21,South,186,0.0,3.0,61,0.00,,CLR,0.00,VWS V13.01,2013-03-30 13:50:00,
2013-03-30 09:55:00,43.1,29.8,30.20,South,186,2.0,3.0,59,0.00,,CLR,0.00,VWS V13.01,2013-03-30 13:55:00,
2013-03-30 10:00:00,43.7,30.3,30.20,South,186,0.0,0.0,59,0.00,,CLR,0.00,VWS V13.01,2013-03-30 14:00:00,
2013-03-30 10:05:00,44.1,29.0,30.20,South,186,0.0,2.0,55,0.00,,CLR,0.00,VWS V13.01,2013-03-30 14:05:00,
2013-03-30 10:10:00,44.6,29.9,30.20,South,186,0.0,2.0,56,0.00,,CLR,0.00,VWS V13.01,2013-03-30 14:10:00,
2013-03-30 10:15:00,45.0,29.4,30.20,South,186,0.0,3.0,54,0.00,,CLR,0.00,VWS V13.01,2013-03-30 14:15:00,
2013-03-30 10:20:00,45.1,29.0,30.20,SSW,194,2.0,5.0,53,0.00,,CLR,0.00,VWS V13.01,2013-03-30 14:20:00,
2013-03-30 10:25:00,45.7,30.9,30.20,SSW,198,1.0,5.0,56,0.00,,CLR,0.00,VWS V13.01,2013-03-30 14:25:00,
2013-03-30 10:30:00,46.5,30.3,30.19,West,272,0.0,4.0,53,0.00,,CLR,0.00,VWS V13.01,2013-03-30 14:30:00,
2013-03-30 10:35:00,46.7,29.1,30.19,WSW,237,1.0,4.0,50,0.00,,CLR,0.00,VWS V13.01,2013-03-30 14:35:00,
2013-03-30 10:40:00,46.4,28.8,30.19,SSW,212,0.0,4.0,50,0.00,,CLR,0.00,VWS V13.01,2013-03-30 14:40:00,
2013-03-30 10:45:00,46.6,28.5,30.18,SSW,205,0.0,4.0,49,0.00,,CLR,0.00,VWS V13.01,2013-03-30 14:45:00,
2013-03-30 10:51:00,47.4,31.1,30.18,South,190,1.0,4.0,53,0.00,,CLR,0.00,VWS V13.01,2013-03-30 14:51:00,
2013-03-30 10:56:00,47.9,30.7,30.18,SW,220,2.0,5.0,51,0.00,,CLR,0.00,VWS V13.01,2013-03-30 14:56:00,
2013-03-30 11:00:00,47.6,29.4,30.18,SW,220,0.0,5.0,49,0.00,,CLR,0.00,VWS V13.01,2013-03-30 15:00:00,
2013-03-30 11:01:00,47.7,31.0,30.18,SW,220,2.0,2.0,52,0.00,,CLR,0.00,VWS V13.01,2013-03-30 15:01:00,
2013-03-30 11:07:00,48.0,29.3,30.18,SSE,168,1.0,4.0,48,0.00,,CLR,0.00,VWS V13.01,2013-03-30 15:07:00,
2013-03-30 11:12:00,48.6,29.8,30.18,SW,225,3.0,4.0,48,0.00,,CLR,0.00,VWS V13.01,2013-03-30 15:12:00,
2013-03-30 11:17:00,48.9,30.6,30.18,SW,223,0.0,4.0,49,0.00,,CLR,0.00,VWS V13.01,2013-03-30 15:17:00,
2013-03-30 11:22:00,49.7,31.3,30.18,SSW,212,3.0,4.0,49,0.00,,CLR,0.00,VWS V13.01,2013-03-30 15:22:00,
2013-03-30 11:27:00,48.9,29.0,30.18,South,182,1.0,7.0,46,0.00,,CLR,0.00,VWS V13.01,2013-03-30 15:27:00,
2013-03-30 11:30:00,48.6,28.2,30.18,SSW,209,0.0,7.0,45,0.00,,CLR,0.00,VWS V13.01,2013-03-30 15:30:00,
2013-03-30 11:32:00,48.4,28.6,30.17,SW,214,5.0,5.0,46,0.00,,CLR,0.00,VWS V13.01,2013-03-30 15:32:00,
2013-03-30 11:37:00,48.3,28.5,30.18,SSW,212,3.0,5.0,46,0.00,,CLR,0.00,VWS V13.01,2013-03-30 15:37:00,
2013-03-30 11:42:00,48.8,28.4,30.17,SSW,212,0.0,5.0,45,0.00,,CLR,0.00,VWS V13.01,2013-03-30 15:42:00,
2013-03-30 11:47:00,49.5,30.1,30.17,WSW,247,3.0,5.0,47,0.00,,CLR,0.00,VWS V13.01,2013-03-30 15:47:00,
2013-03-30 11:52:00,49.9,29.4,30.17,SSW,196,3.0,6.0,45,0.00,,CLR,0.00,VWS V13.01,2013-03-30 15:52:00,
2013-03-30 11:57:00,49.4,30.0,30.17,NW,315,0.0,7.0,47,0.00,,CLR,0.00,VWS V13.01,2013-03-30 15:57:00,
2013-03-30 12:00:00,49.6,30.2,30.17,NNW,333,2.0,7.0,47,0.00,,CLR,0.00,VWS V13.01,2013-03-30 16:00:00,
2013-03-30 12:02:00,49.9,31.0,30.17,North,9,0.0,5.0,48,0.00,,CLR,0.00,VWS V13.01,2013-03-30 16:02:00,
2013-03-30 12:07:00,50.5,31.0,30.17,SW,223,1.0,6.0,47,0.00,,CLR,0.00,VWS V13.01,2013-03-30 16:07:00,
2013-03-30 12:12:00,50.5,30.0,30.16,SSW,193,0.0,6.0,45,0.00,,CLR,0.00,VWS V13.01,2013-03-30 16:12:00,
2013-03-30 12:17:00,50.7,29.6,30.16,SSE,168,0.0,6.0,44,0.00,,CLR,0.00,VWS V13.01,2013-03-30 16:17:00,
2013-03-30 12:22:00,51.2,32.7,30.15,WSW,241,4.0,11.0,49,0.00,,CLR,0.00,VWS V13.01,2013-03-30 16:22:00,
2013-03-30 12:27:00,50.9,30.9,30.16,West,273,0.0,11.0,46,0.00,,CLR,0.00,VWS V13.01,2013-03-30 16:27:00,
2013-03-30 12:30:00,50.9,30.9,30.16,West,271,1.0,11.0,46,0.00,,CLR,0.00,VWS V13.01,2013-03-30 16:30:00,
2013-03-30 12:32:00,50.7,31.2,30.16,West,263,4.0,7.0,47,0.00,,CLR,0.00,VWS V13.01,2013-03-30 16:32:00,
2013-03-30 12:37:00,50.3,30.3,30.15,NE,38,1.0,7.0,46,0.00,,CLR,0.00,VWS V13.01,2013-03-30 16:37:00,
2013-03-30 12:42:00,49.8,30.9,30.15,NW,311,3.0,7.0,48,0.00,,CLR,0.00,VWS V13.01,2013-03-30 16:42:00,
2013-03-30 12:47:00,49.7,30.8,30.15,WNW,286,2.0,7.0,48,0.00,,CLR,0.00,VWS V13.01,2013-03-30 16:47:00,
2013-03-30 12:52:00,49.8,29.9,30.15,WNW,300,1.0,7.0,46,0.00,,CLR,0.00,VWS V13.01,2013-03-30 16:52:00,
2013-03-30 12:57:00,50.1,30.7,30.15,WNW,284,2.0,7.0,47,0.00,,CLR,0.00,VWS V13.01,2013-03-30 16:57:00,
2013-03-30 13:00:00,50.1,31.2,30.15,NNW,339,0.0,7.0,48,0.00,,CLR,0.00,VWS V13.01,2013-03-30 17:00:00,
2013-03-30 13:02:00,49.9,30.5,30.15,NNW,342,0.0,5.0,47,0.00,,CLR,0.00,VWS V13.01,2013-03-30 17:02:00,
2013-03-30 13:07:00,49.1,30.3,30.15,WNW,284,1.0,6.0,48,0.00,,CLR,0.00,VWS V13.01,2013-03-30 17:07:00,
2013-03-30 13:13:00,48.8,30.0,30.15,WNW,288,3.0,6.0,48,0.00,,CLR,0.00,VWS V13.01,2013-03-30 17:13:00,
2013-03-30 13:18:00,48.7,29.9,30.15,WNW,288,0.0,6.0,48,0.00,,CLR,0.00,VWS V13.01,2013-03-30 17:18:00,
2013-03-30 13:23:00,48.6,29.3,30.14,North,355,0.0,6.0,47,0.00,,CLR,0.00,VWS V13.01,2013-03-30 17:23:00,
2013-03-30 13:28:00,48.8,30.5,30.14,NE,53,2.0,6.0,49,0.00,,CLR,0.00,VWS V13.01,2013-03-30 17:28:00,
2013-03-30 13:30:00,48.9,30.6,30.14,NNE,26,2.0,6.0,49,0.00,,CLR,0.00,VWS V13.01,2013-03-30 17:30:00,
2013-03-30 13:33:00,49.1,29.8,30.14,North,5,2.0,5.0,47,0.00,,CLR,0.00,VWS V13.01,2013-03-30 17:33:00,
2013-03-30 13:38:00,49.2,30.4,30.14,WNW,294,1.0,6.0,48,0.00,,CLR,0.00,VWS V13.01,2013-03-30 17:38:00,
2013-03-30 13:43:00,48.8,29.5,30.14,West,275,2.0,6.0,47,0.00,,CLR,0.00,VWS V13.01,2013-03-30 17:43:00,
2013-03-30 13:48:00,48.5,30.2,30.14,WNW,302,1.0,6.0,49,0.00,,CLR,0.00,VWS V13.01,2013-03-30 17:48:00,
2013-03-30 13:53:00,48.7,29.9,30.14,NNE,22,4.0,6.0,48,0.00,,CLR,0.00,VWS V13.01,2013-03-30 17:53:00,
2013-03-30 13:58:00,48.7,29.9,30.13,North,355,2.0,6.0,48,0.00,,CLR,0.00,VWS V13.01,2013-03-30 17:58:00,
2013-03-30 14:00:00,48.8,29.5,30.13,North,360,1.0,6.0,47,0.00,,CLR,0.00,VWS V13.01,2013-03-30 18:00:00,
2013-03-30 14:03:00,49.1,30.3,30.13,NNW,348,5.0,5.0,48,0.00,,CLR,0.00,VWS V13.01,2013-03-30 18:03:00,
2013-03-30 14:08:00,49.9,31.5,30.13,NW,325,0.0,5.0,49,0.00,,CLR,0.00,VWS V13.01,2013-03-30 18:08:00,
2013-03-30 14:13:00,50.3,30.9,30.12,North,351,5.0,10.0,47,0.00,,CLR,0.00,VWS V13.01,2013-03-30 18:13:00,
2013-03-30 14:18:00,50.7,31.2,30.12,NNE,12,2.0,10.0,47,0.00,,CLR,0.00,VWS V13.01,2013-03-30 18:18:00,
2013-03-30 14:23:00,50.8,30.8,30.12,North,9,3.0,10.0,46,0.00,,CLR,0.00,VWS V13.01,2013-03-30 18:23:00,
2013-03-30 14:28:00,51.1,31.6,30.11,NNE,31,1.0,10.0,47,0.00,,CLR,0.00,VWS V13.01,2013-03-30 18:28:00,
2013-03-30 14:30:00,51.1,31.1,30.11,North,360,3.0,10.0,46,0.00,,CLR,0.00,VWS V13.01,2013-03-30 18:30:00,
2013-03-30 14:33:00,51.2,31.1,30.11,NE,39,0.0,5.0,46,0.00,,CLR,0.00,VWS V13.01,2013-03-30 18:33:00,
2013-03-30 14:38:00,51.2,31.1,30.11,WNW,288,1.0,7.0,46,0.00,,CLR,0.00,VWS V13.01,2013-03-30 18:38:00,
2013-03-30 14:43:00,51.1,30.5,30.11,WNW,302,1.0,7.0,45,0.00,,CLR,0.00,VWS V13.01,2013-03-30 18:43:00,
2013-03-30 14:48:00,51.3,31.8,30.11,NW,306,1.0,7.0,47,0.00,,CLR,0.00,VWS V13.01,2013-03-30 18:48:00,
2013-03-30 14:53:00,51.5,31.4,30.10,North,360,5.0,9.0,46,0.00,,CLR,0.00,VWS V13.01,2013-03-30 18:53:00,
2013-03-30 15:04:00,51.4,30.2,30.10,North,0,3.0,10.0,44,0.00,,CLR,0.00,VWS V13.01,2013-03-30 19:04:00,
2013-03-30 15:09:00,51.4,30.8,30.10,NNE,15,0.0,7.0,45,0.00,,CLR,0.00,VWS V13.01,2013-03-30 19:09:00,
2013-03-30 15:14:00,51.1,30.5,30.10,NNW,344,2.0,7.0,45,0.00,,CLR,0.00,VWS V13.01,2013-03-30 19:14:00,
2013-03-30 15:19:00,51.2,31.1,30.09,WNW,284,0.0,7.0,46,0.00,,CLR,0.00,VWS V13.01,2013-03-30 19:19:00,
2013-03-30 15:24:00,51.5,30.9,30.09,NNW,348,7.0,9.0,45,0.00,,CLR,0.00,VWS V13.01,2013-03-30 19:24:00,
2013-03-30 15:29:00,51.4,30.2,30.09,NNW,328,1.0,10.0,44,0.00,,CLR,0.00,VWS V13.01,2013-03-30 19:29:00,
2013-03-30 15:34:00,51.6,31.5,30.09,WNW,286,4.0,4.0,46,0.00,,CLR,0.00,VWS V13.01,2013-03-30 19:34:00,
2013-03-30 15:39:00,51.6,31.0,30.09,North,5,2.0,6.0,45,0.00,,CLR,0.00,VWS V13.01,2013-03-30 19:39:00,
2013-03-30 15:44:00,51.5,31.4,30.09,West,280,2.0,9.0,46,0.00,,CLR,0.00,VWS V13.01,2013-03-30 19:44:00,
2013-03-30 15:49:00,51.3,32.8,30.09,North,355,0.0,10.0,49,0.00,,CLR,0.00,VWS V13.01,2013-03-30 19:49:00,
2013-03-30 15:54:00,51.5,32.5,30.09,NNW,329,1.0,10.0,48,0.00,,CLR,0.00,VWS V13.01,2013-03-30 19:54:00,
2013-03-30 15:59:00,51.5,30.3,30.08,West,281,1.0,10.0,44,0.00,,CLR,0.00,VWS V13.01,2013-03-30 19:59:00,
2013-03-30 16:04:00,51.2,31.1,30.08,North,360,2.0,6.0,46,0.00,,CLR,0.00,VWS V13.01,2013-03-30 20:04:00,
2013-03-30 16:09:00,50.8,29.7,30.08,North,11,2.0,9.0,44,0.00,,CLR,0.00,VWS V13.01,2013-03-30 20:09:00,
2013-03-30 16:14:00,50.6,30.1,30.08,West,267,2.0,9.0,45,0.00,,CLR,0.00,VWS V13.01,2013-03-30 20:14:00,
2013-03-30 16:19:00,50.6,29.5,30.08,NNW,348,2.0,9.0,44,0.00,,CLR,0.00,VWS V13.01,2013-03-30 20:19:00,
2013-03-30 16:24:00,50.5,30.0,30.08,West,278,2.0,9.0,45,0.00,,CLR,0.00,VWS V13.01,2013-03-30 20:24:00,
2013-03-30 16:29:00,50.6,30.1,30.08,NW,309,1.0,9.0,45,0.00,,CLR,0.00,VWS V13.01,2013-03-30 20:29:00,
2013-03-30 16:34:00,50.6,29.0,30.08,NNW,347,2.0,10.0,43,0.00,,CLR,0.00,VWS V13.01,2013-03-30 20:34:00,
2013-03-30 16:39:00,50.4,28.8,30.08,NNW,348,3.0,10.0,43,0.00,,CLR,0.00,VWS V13.01,2013-03-30 20:39:00,
2013-03-30 16:44:00,50.4,29.9,30.08,NNW,346,3.0,10.0,45,0.00,,CLR,0.00,VWS V13.01,2013-03-30 20:44:00,
2013-03-30 16:49:00,50.3,28.7,30.08,NW,326,1.0,10.0,43,0.00,,CLR,0.00,VWS V13.01,2013-03-30 20:49:00,
2013-03-30 16:54:00,50.3,28.7,30.08,NNW,345,2.0,10.0,43,0.00,,CLR,0.00,VWS V13.01,2013-03-30 20:54:00,
2013-03-30 16:59:00,50.3,29.2,30.08,WNW,290,3.0,10.0,44,0.00,,CLR,0.00,VWS V13.01,2013-03-30 20:59:00,
2013-03-30 17:04:00,50.2,28.6,30.08,NNE,19,3.0,7.0,43,0.00,,CLR,0.00,VWS V13.01,2013-03-30 21:04:00,
2013-03-30 17:09:00,49.9,28.3,30.07,NW,305,2.0,7.0,43,0.00,,CLR,0.00,VWS V13.01,2013-03-30 21:09:00,
2013-03-30 17:14:00,49.6,28.0,30.07,North,5,2.0,7.0,43,0.00,,CLR,0.00,VWS V13.01,2013-03-30 21:14:00,
2013-03-30 17:19:00,49.5,28.0,30.07,NNW,334,2.0,7.0,43,0.00,,CLR,0.00,VWS V13.01,2013-03-30 21:19:00,
2013-03-30 17:24:00,49.4,27.9,30.06,NE,40,0.0,7.0,43,0.00,,CLR,0.00,VWS V13.01,2013-03-30 21:24:00,
2013-03-30 17:29:00,49.5,28.5,30.06,NW,307,0.0,0.0,44,0.00,,CLR,0.00,VWS V13.01,2013-03-30 21:29:00,
2013-03-30 17:34:00,49.6,28.6,30.06,NW,314,1.0,3.0,44,0.00,,CLR,0.00,VWS V13.01,2013-03-30 21:34:00,
2013-03-30 17:39:00,49.4,27.9,30.06,NE,51,0.0,4.0,43,0.00,,CLR,0.00,VWS V13.01,2013-03-30 21:39:00,
2013-03-30 17:44:00,49.3,27.8,30.06,NNE,32,2.0,4.0,43,0.00,,CLR,0.00,VWS V13.01,2013-03-30 21:44:00,
2013-03-30 17:49:00,49.2,28.8,30.06,NNW,340,1.0,4.0,45,0.00,,CLR,0.00,VWS V13.01,2013-03-30 21:49:00,
2013-03-30 17:54:00,49.1,27.6,30.06,NNW,331,1.0,4.0,43,0.00,,CLR,0.00,VWS V13.01,2013-03-30 21:54:00,
2013-03-30 17:59:00,49.0,28.0,30.05,NNW,342,2.0,3.0,44,0.00,,CLR,0.00,VWS V13.01,2013-03-30 21:59:00,
2013-03-30 18:05:00,48.8,27.9,30.05,NNE,12,0.0,4.0,44,0.00,,CLR,0.00,VWS V13.01,2013-03-30 22:05:00,
2013-03-30 18:10:00,48.8,28.4,30.05,NNW,348,0.0,4.0,45,0.00,,CLR,0.00,VWS V13.01,2013-03-30 22:10:00,
2013-03-30 18:15:00,48.7,27.8,30.05,NE,39,0.0,4.0,44,0.00,,CLR,0.00,VWS V13.01,2013-03-30 22:15:00,
2013-03-30 18:20:00,48.7,27.8,30.05,NNW,344,0.0,4.0,44,0.00,,CLR,0.00,VWS V13.01,2013-03-30 22:20:00,
2013-03-30 18:25:00,48.5,28.1,30.05,NE,38,2.0,4.0,45,0.00,,CLR,0.00,VWS V13.01,2013-03-30 22:25:00,
2013-03-30 18:30:00,48.2,27.3,30.05,NE,55,1.0,1.0,44,0.00,,CLR,0.00,VWS V13.01,2013-03-30 22:30:00,
2013-03-30 18:35:00,48.1,27.2,30.05,North,355,0.0,4.0,44,0.00,,CLR,0.00,VWS V13.01,2013-03-30 22:35:00,
2013-03-30 18:40:00,48.0,27.7,30.05,North,5,0.0,4.0,45,0.00,,CLR,0.00,VWS V13.01,2013-03-30 22:40:00,
2013-03-30 18:45:00,47.8,27.5,30.05,North,355,2.0,4.0,45,0.00,,CLR,0.00,VWS V13.01,2013-03-30 22:45:00,
2013-03-30 18:50:00,47.7,28.0,30.05,North,351,0.0,4.0,46,0.00,,CLR,0.00,VWS V13.01,2013-03-30 22:50:00,
2013-03-30 18:55:00,47.6,28.4,30.05,North,351,0.0,4.0,47,0.00,,CLR,0.00,VWS V13.01,2013-03-30 22:55:00,
2013-03-30 19:00:00,47.4,27.7,30.05,NNE,13,0.0,1.0,46,0.00,,CLR,0.00,VWS V13.01,2013-03-30 23:00:00,
2013-03-30 19:05:00,47.2,27.5,30.05,NNE,13,0.0,2.0,46,0.00,,CLR,0.00,VWS V13.01,2013-03-30 23:05:00,
2013-03-30 19:10:00,47.1,27.4,30.04,NE,40,0.0,3.0,46,0.00,,CLR,0.00,VWS V13.01,2013-03-30 23:10:00,
2013-03-30 19:15:00,46.9,27.7,30.04,NE,40,0.0,3.0,47,0.00,,CLR,0.00,VWS V13.01,2013-03-30 23:15:00,
2013-03-30 19:20:00,46.7,27.0,30.04,NE,40,1.0,3.0,46,0.00,,CLR,0.00,VWS V13.01,2013-03-30 23:20:00,
2013-03-30 19:25:00,46.5,26.9,30.04,NE,40,0.0,3.0,46,0.00,,CLR,0.00,VWS V13.01,2013-03-30 23:25:00,
2013-03-30 19:30:00,46.3,27.2,30.04,NE,40,0.0,0.0,47,0.00,,CLR,0.00,VWS V13.01,2013-03-30 23:30:00,
2013-03-30 19:35:00,46.0,27.4,30.04,NE,40,0.0,1.0,48,0.00,,CLR,0.00,VWS V13.01,2013-03-30 23:35:00,
2013-03-30 19:40:00,45.6,27.1,30.04,NE,40,0.0,1.0,48,0.00,,CLR,0.00,VWS V13.01,2013-03-30 23:40:00,
2013-03-30 19:45:00,45.2,27.2,30.04,NE,40,0.0,1.0,49,0.00,,CLR,0.00,VWS V13.01,2013-03-30 23:45:00,
2013-03-30 19:50:00,44.7,27.2,30.03,NE,40,0.0,1.0,50,0.00,,CLR,0.00,VWS V13.01,2013-03-30 23:50:00,
2013-03-30 19:55:00,44.2,27.2,30.03,NE,40,0.0,1.0,51,0.00,,CLR,0.00,VWS V13.01,2013-03-30 23:55:00,
2013-03-30 20:00:00,43.8,27.3,30.03,NE,40,0.0,0.0,52,0.00,,CLR,0.00,VWS V13.01,2013-03-31 00:00:00,
2013-03-30 20:05:00,43.4,27.9,30.02,NE,40,0.0,0.0,54,0.00,,CLR,0.00,VWS V13.01,2013-03-31 00:05:00,
2013-03-30 20:10:00,42.9,27.0,30.03,NE,40,0.0,0.0,53,0.00,,CLR,0.00,VWS V13.01,2013-03-31 00:10:00,
2013-03-30 20:15:00,42.5,26.6,30.02,NE,40,0.0,0.0,53,0.00,,CLR,0.00,VWS V13.01,2013-03-31 00:15:00,
2013-03-30 20:20:00,42.1,27.1,30.02,NE,40,0.0,0.0,55,0.00,,CLR,0.00,VWS V13.01,2013-03-31 00:20:00,
2013-03-30 20:25:00,41.8,27.3,30.02,NE,40,0.0,0.0,56,0.00,,CLR,0.00,VWS V13.01,2013-03-31 00:25:00,
2013-03-30 20:30:00,41.7,27.6,30.02,NE,40,0.0,0.0,57,0.00,,CLR,0.00,VWS V13.01,2013-03-31 00:30:00,
2013-03-30 20:35:00,41.4,28.2,30.02,NE,40,0.0,0.0,59,0.00,,CLR,0.00,VWS V13.01,2013-03-31 00:35:00,
2013-03-30 20:40:00,41.1,27.9,30.02,NE,40,0.0,0.0,59,0.00,,CLR,0.00,VWS V13.01,2013-03-31 00:40:00,
2013-03-30 20:45:00,40.9,28.1,30.02,NE,40,0.0,0.0,60,0.00,,CLR,0.00,VWS V13.01,2013-03-31 00:45:00,
2013-03-30 20:50:00,40.7,28.3,30.02,NE,40,0.0,0.0,61,0.00,,CLR,0.00,VWS V13.01,2013-03-31 00:50:00,
2013-03-30 20:55:00,40.6,27.8,30.02,NE,40,0.0,0.0,60,0.00,,CLR,0.00,VWS V13.01,2013-03-31 00:55:00,
2013-03-30 21:00:00,40.5,28.1,30.01,NE,40,0.0,0.0,61,0.00,,CLR,0.00,VWS V13.01,2013-03-31 01:00:00,
2013-03-30 21:05:00,40.5,28.1,30.01,NE,40,0.0,0.0,61,0.00,,CLR,0.00,VWS V13.01,2013-03-31 01:05:00,
2013-03-30 21:10:00,40.4,28.4,30.01,NE,40,0.0,0.0,62,0.00,,CLR,0.00,VWS V13.01,2013-03-31 01:10:00,
2013-03-30 21:15:00,40.2,28.6,30.01,NE,40,0.0,0.0,63,0.00,,CLR,0.00,VWS V13.01,2013-03-31 01:15:00,
2013-03-30 21:20:00,40.0,28.8,30.01,NE,40,0.0,0.0,64,0.00,,CLR,0.00,VWS V13.01,2013-03-31 01:20:00,
2013-03-30 21:25:00,39.7,28.5,30.01,NE,40,0.0,0.0,64,0.00,,CLR,0.00,VWS V13.01,2013-03-31 01:25:00,
2013-03-30 21:30:00,39.4,28.6,30.01,NE,40,0.0,0.0,65,0.00,,CLR,0.00,VWS V13.01,2013-03-31 01:30:00,
2013-03-30 21:35:00,39.3,28.5,30.01,NE,40,0.0,0.0,65,0.00,,CLR,0.00,VWS V13.01,2013-03-31 01:35:00,
2013-03-30 21:40:00,39.2,28.4,30.01,NE,40,0.0,0.0,65,0.00,,CLR,0.00,VWS V13.01,2013-03-31 01:40:00,
2013-03-30 21:45:00,39.1,28.7,30.01,NE,40,0.0,1.0,66,0.00,,CLR,0.00,VWS V13.01,2013-03-31 01:45:00,
2013-03-30 21:50:00,39.1,29.1,30.01,NE,40,0.0,1.0,67,0.00,,CLR,0.00,VWS V13.01,2013-03-31 01:50:00,
2013-03-30 21:55:00,39.0,29.0,30.00,NE,40,0.0,1.0,67,0.00,,CLR,0.00,VWS V13.01,2013-03-31 01:55:00,
2013-03-30 22:00:00,39.1,29.1,30.00,NE,40,0.0,0.0,67,0.00,,CLR,0.00,VWS V13.01,2013-03-31 02:00:00,
2013-03-30 22:05:00,39.1,29.1,30.00,NE,40,0.0,0.0,67,0.00,,CLR,0.00,VWS V13.01,2013-03-31 02:05:00,
2013-03-30 22:10:00,39.1,29.5,30.00,NE,40,0.0,1.0,68,0.00,,CLR,0.00,VWS V13.01,2013-03-31 02:10:00,
2013-03-30 22:15:00,39.1,29.5,30.00,NE,40,0.0,1.0,68,0.00,,CLR,0.00,VWS V13.01,2013-03-31 02:15:00,
2013-03-30 22:20:00,39.1,29.5,30.00,NE,40,0.0,1.0,68,0.00,,CLR,0.00,VWS V13.01,2013-03-31 02:20:00,
2013-03-30 22:25:00,39.1,29.5,30.00,NE,40,0.0,1.0,68,0.00,,CLR,0.00,VWS V13.01,2013-03-31 02:25:00,
2013-03-30 22:30:00,39.2,29.9,30.00,NE,40,0.0,0.0,69,0.00,,CLR,0.00,VWS V13.01,2013-03-31 02:30:00,
2013-03-30 22:35:00,39.1,29.8,30.00,NE,40,0.0,1.0,69,0.00,,CLR,0.00,VWS V13.01,2013-03-31 02:35:00,
2013-03-30 22:41:00,39.1,29.8,30.00,NE,40,0.0,1.0,69,0.00,,CLR,0.00,VWS V13.01,2013-03-31 02:41:00,
2013-03-30 22:45:00,39.2,29.5,30.00,NE,40,0.0,1.0,68,0.00,,CLR,0.00,VWS V13.01,2013-03-31 02:45:00,
2013-03-30 22:51:00,39.4,29.4,30.00,NE,40,0.0,1.0,67,0.00,,CLR,0.00,VWS V13.01,2013-03-31 02:51:00,
2013-03-30 22:56:00,39.6,29.6,29.99,NE,40,0.0,1.0,67,0.00,,CLR,0.00,VWS V13.01,2013-03-31 02:56:00,
2013-03-30 23:01:00,39.9,29.5,29.99,NE,40,0.0,0.0,66,0.00,,CLR,0.00,VWS V13.01,2013-03-31 03:01:00,
2013-03-30 23:06:00,40.3,29.1,29.99,SE,140,0.0,2.0,64,0.00,,CLR,0.00,VWS V13.01,2013-03-31 03:06:00,
2013-03-30 23:11:00,40.7,29.1,29.99,SE,140,0.0,2.0,63,0.00,,CLR,0.00,VWS V13.01,2013-03-31 03:11:00,
2013-03-30 23:16:00,41.1,29.1,29.99,SE,140,0.0,2.0,62,0.00,,CLR,0.00,VWS V13.01,2013-03-31 03:16:00,
2013-03-30 23:21:00,41.5,29.1,29.98,SE,140,0.0,2.0,61,0.00,,CLR,0.00,VWS V13.01,2013-03-31 03:21:00,
2013-03-30 23:26:00,41.8,29.0,29.98,SE,140,0.0,2.0,60,0.00,,CLR,0.00,VWS V13.01,2013-03-31 03:26:00,
2013-03-30 23:32:00,41.9,29.0,29.98,SE,140,0.0,0.0,60,0.00,,CLR,0.00,VWS V13.01,2013-03-31 03:32:00,
2013-03-30 23:37:00,41.9,29.0,29.97,SE,140,0.0,1.0,60,0.00,,CLR,0.00,VWS V13.01,2013-03-31 03:37:00,
2013-03-30 23:42:00,41.9,28.6,29.97,SE,140,0.0,1.0,59,0.00,,CLR,0.00,VWS V13.01,2013-03-31 03:42:00,
2013-03-30 23:47:00,42.0,28.7,29.97,SE,140,0.0,1.0,59,0.00,,CLR,0.00,VWS V13.01,2013-03-31 03:47:00,
2013-03-30 23:52:00,42.1,28.8,29.97,SE,140,0.0,2.0,59,0.00,,CLR,0.00,VWS V13.01,2013-03-31 03:52:00,
2013-03-30 23:57:00,42.2,28.9,29.96,SE,140,0.0,2.0,59,0.00,,CLR,0.00,VWS V13.01,2013-03-31 03:57:00,